DW2363 Weather Reports


time (UTC)temp
F
wind
direction
speed
knots
gust
knots
rain 1hr
in
rain 24hr
in
rain mn
in
humidity
%
barometer
mb
20260504081031 51 220 7.0 10.4 0.00 0.00 0.00 80 1014.3
20260504080531 51 229 7.8 11.3 0.00 0.00 0.00 79 1014.3
20260504050527 51 195 0.0 1.7 0.00 0.00 0.00 91 1013.9
20260504045527 51 195 0.9 2.6 0.00 0.00 0.00 91 1014.0
20260504045027 51 195 0.9 2.6 0.00 0.00 0.00 90 1014.0
20260504044528 51 195 0.0 2.6 0.00 0.00 0.00 90 1014.0
20260504044027 51 195 0.0 2.6 0.00 0.00 0.00 90 1013.8
20260504043527 51 195 0.9 3.5 0.00 0.00 0.00 90 1013.7
20260504043029 51 195 1.7 5.2 0.00 0.00 0.00 90 1013.7
20260504043025 51 195 2.6 5.2 0.00 0.00 0.00 90 1013.8
20260504042632 51 195 3.5 5.2 0.00 0.00 0.00 90 1013.8
20260504041522 51 195 3.5 5.2 0.00 0.00 0.00 90 1013.8
20260504041020 51 195 3.5 7.0 0.00 0.00 0.00 90 1013.6
20260504040521 51 198 4.3 7.0 0.00 0.00 0.00 90 1013.6
20260504040021 51 192 5.2 7.8 0.00 0.00 0.00 89 1013.4
20260504035521 51 207 5.2 7.8 0.00 0.00 0.00 89 1013.4
20260504035022 51 212 4.3 7.0 0.00 0.00 0.00 87 1013.4
20260504034521 51 209 3.5 6.1 0.00 0.00 0.00 87 1013.4
20260504034020 51 253 2.6 6.1 0.00 0.00 0.00 86 1013.2
20260504033523 51 269 2.6 7.0 0.00 0.00 0.00 85 1013.4
20260504033519 51 252 2.6 6.1 0.00 0.00 0.00 86 1013.2
20260504033126 52 272 2.6 7.0 0.00 0.00 0.00 85 1013.0
20260504032019 52 260 2.6 6.1 0.00 0.00 0.00 85 1013.0
20260504031519 52 267 3.5 7.0 0.00 0.00 0.00 85 1012.9
20260504031019 52 281 5.2 7.8 0.00 0.00 0.00 85 1012.9
20260504030519 52 311 4.3 7.8 0.00 0.00 0.00 84 1012.7
20260504030019 52 291 4.3 7.0 0.00 0.00 0.00 84 1012.8
20260504025519 52 294 2.6 7.0 0.00 0.00 0.00 84 1012.8
20260504025018 52 280 2.6 6.1 0.00 0.00 0.00 84 1012.8
20260504024517 52 221 3.5 6.1 0.00 0.00 0.00 83 1012.8
20260504024016 53 214 3.5 6.1 0.00 0.00 0.00 82 1012.8
20260504023517 53 219 3.5 6.1 0.00 0.00 0.00 83 1012.6
20260504023017 53 235 3.5 6.1 0.00 0.00 0.00 82 1012.6
20260504022521 53 232 2.6 6.1 0.00 0.00 0.00 81 1012.6
20260504022517 53 227 2.6 6.1 0.00 0.00 0.00 81 1012.6
20260504021517 53 243 3.5 6.1 0.00 0.00 0.00 82 1012.6
20260504021017 52 244 3.5 6.1 0.00 0.00 0.00 83 1012.5
20260504020521 52 205 3.5 4.3 0.00 0.00 0.00 84 1012.6
20260504020517 52 241 3.5 5.2 0.00 0.00 0.00 83 1012.5
20260504015520 52 207 5.2 7.8 0.00 0.00 0.00 85 1012.4
20260504015515 52 205 3.5 5.2 0.00 0.00 0.00 85 1012.6
20260504015015 52 205 4.3 7.8 0.00 0.00 0.00 85 1012.7
20260504014014 52 240 5.2 7.0 0.00 0.00 0.00 86 1012.4
20260504013515 52 218 6.1 7.8 0.00 0.00 0.00 86 1012.3
20260504013013 52 204 7.0 10.4 0.00 0.00 0.00 85 1012.3
20260504012513 52 196 7.8 10.4 0.00 0.00 0.00 85 1012.4
20260504012013 52 186 7.0 13.0 0.00 0.00 0.00 84 1012.5
20260504011512 52 184 7.0 13.0 0.00 0.00 0.00 85 1012.4
20260504011012 52 227 8.7 13.0 0.00 0.00 0.00 86 1012.2
20260504010510 53 207 9.6 13.0 0.00 0.00 0.00 86 1012.3
20260504010011 53 189 9.6 12.2 0.00 0.00 0.00 85 1012.4
20260504005511 53 188 8.7 13.9 0.00 0.00 0.00 84 1012.2
20260504005015 54 191 7.8 13.0 0.00 0.00 0.00 85 1012.3
20260504005011 54 181 8.7 13.9 0.00 0.00 0.00 84 1012.3
20260504004016 54 161 6.1 10.4 0.00 0.00 0.00 85 1012.1
20260504004011 54 184 6.1 11.3 0.00 0.00 0.00 84 1012.2
20260504003018 53 200 7.0 9.6 0.00 0.00 0.00 86 1012.2
20260504003011 53 205 6.1 10.4 0.00 0.00 0.00 86 1012.1
20260504002511 53 212 7.0 10.4 0.00 0.00 0.00 86 1012.2
20260504001511 53 205 7.0 10.4 0.00 0.00 0.00 86 1012.2
20260504001011 53 175 7.0 10.4 0.00 0.00 0.00 87 1012.2
20260504000511 53 194 6.1 9.6 0.00 0.00 0.00 86 1012.2
20260504000011 53 195 7.0 9.6 0.00 0.00 0.00 86 1012.2
20260503235511 53 213 7.0 9.6 0.00 0.00 0.00 85 1012.1
20260503235011 53 192 7.8 10.4 0.00 0.00 0.00 85 1012.1
20260503234511 53 200 7.0 10.4 0.00 0.00 0.00 86 1012.1
20260503234011 53 183 7.0 10.4 0.00 0.00 0.00 86 1012.1
20260503233511 53 185 7.8 12.2 0.00 0.00 0.00 85 1012.1
20260503233011 53 211 7.8 12.2 0.00 0.00 0.00 85 1012.0
20260503232511 53 208 7.8 12.2 0.00 0.00 0.00 86 1012.1
20260503232010 53 213 7.8 12.2 0.00 0.00 0.00 86 1012.2
20260503231511 53 183 7.8 11.3 0.00 0.00 0.00 86 1012.2
20260503231011 53 177 8.7 13.9 0.00 0.00 0.00 86 1012.2
20260503230512 53 184 8.7 13.9 0.00 0.00 0.00 85 1012.3
20260503230012 54 195 7.8 13.0 0.00 0.00 0.00 84 1012.4
20260503225511 54 219 7.8 12.2 0.00 0.00 0.00 84 1012.3
20260503225011 54 186 7.8 11.3 0.00 0.00 0.00 83 1012.4
20260503224515 54 192 7.0 10.4 0.00 0.00 0.00 81 1012.6
20260503224511 54 181 7.0 10.4 0.00 0.00 0.00 83 1012.4
20260503223511 55 195 6.1 10.4 0.00 0.00 0.00 81 1012.6
20260503223011 55 188 6.1 11.3 0.00 0.00 0.00 81 1012.7
20260503222511 55 178 7.0 11.3 0.00 0.00 0.00 83 1012.7
20260503222011 54 178 7.8 11.3 0.00 0.00 0.00 82 1012.7
20260503221511 54 187 6.1 11.3 0.00 0.00 0.00 83 1012.8
20260503221015 53 197 7.0 13.0 0.00 0.00 0.00 84 1012.8
20260503221011 54 214 6.1 11.3 0.00 0.00 0.00 84 1012.9
20260503220009 54 194 7.0 13.0 0.00 0.00 0.00 84 1012.9
20260503215507 54 211 7.8 13.9 0.00 0.00 0.00 84 1012.8
20260503215006 54 180 9.6 13.9 0.00 0.00 0.00 84 1012.9
20260503214506 54 202 8.7 13.9 0.00 0.00 0.00 83 1013.0
20260503214006 54 192 7.8 13.9 0.00 0.00 0.00 84 1013.0
20260503213506 54 194 8.7 13.9 0.00 0.00 0.00 85 1013.0
20260503213005 53 193 9.6 13.9 0.00 0.00 0.00 84 1012.9
20260503212504 53 199 8.7 13.9 0.00 0.00 0.00 84 1013.0
20260503212008 54 194 9.6 13.9 0.00 0.00 0.00 85 1013.0
20260503212004 54 205 8.7 13.9 0.00 0.00 0.00 84 1012.9
20260503211614 53 175 10.4 14.8 0.00 0.00 0.00 85 1013.0
20260503210505 53 194 10.4 14.8 0.00 0.00 0.00 86 1013.0
20260503210005 53 198 10.4 15.6 0.00 0.00 0.00 87 1013.0
20260503205508 53 186 11.3 15.6 0.00 0.00 0.00 86 1013.0
20260503205504 53 198 10.4 15.6 0.00 0.00 0.00 84 1013.0
20260503204504 53 190 11.3 15.6 0.00 0.00 0.00 86 1013.0
20260503204004 53 196 10.4 15.6 0.00 0.00 0.00 85 1013.0
20260503203502 54 191 9.6 14.8 0.00 0.00 0.00 82 1013.1
20260503203002 54 193 8.7 13.9 0.00 0.00 0.00 83 1013.2
20260503202506 55 205 7.0 13.9 0.00 0.00 0.00 82 1013.0
20260503202502 55 179 7.8 13.9 0.00 0.00 0.00 83 1013.0
20260503202111 55 190 7.8 13.9 0.00 0.00 0.00 82 1013.0
20260503201002 55 200 7.8 13.0 0.00 0.00 0.00 82 1013.0
20260503200502 55 200 7.0 12.2 0.00 0.00 0.00 84 1013.4
20260503200002 55 184 6.1 12.2 0.00 0.00 0.00 82 1013.2
20260503195501 55 192 6.1 12.2 0.00 0.00 0.00 85 1013.2
20260503195001 55 182 7.0 11.3 0.00 0.00 0.00 85 1013.2
20260503194500 54 151 7.0 13.0 0.00 0.00 0.00 87 1013.4
20260503194000 54 140 7.0 13.9 0.00 0.00 0.00 85 1013.5
20260503193500 54 176 7.0 13.9 0.00 0.00 0.00 86 1013.4
20260503193000 54 169 7.0 12.2 0.00 0.00 0.00 86 1013.4
20260503192459 54 187 7.0 11.3 0.00 0.00 0.00 87 1013.4
20260503192000 53 190 7.8 13.0 0.00 0.00 0.00 88 1013.4
20260503191500 54 151 7.0 13.0 0.00 0.00 0.00 90 1013.4
20260503190959 54 165 7.0 14.8 0.00 0.00 0.00 92 1013.4
20260503190500 53 161 7.0 14.8 0.00 0.00 0.00 94 1013.5
20260503185957 53 184 7.0 13.9 0.00 0.00 0.00 95 1013.6
20260503185457 52 195 7.0 13.9 0.00 0.00 0.00 96 1013.6
20260503185001 51 180 7.8 14.8 0.00 0.00 0.00 96 1013.6
20260503184957 51 152 7.8 13.9 0.00 0.00 0.00 96 1013.6
20260503184607 51 173 7.0 14.8 0.00 0.00 0.00 97 1013.6
20260503183458 51 155 7.0 12.2 0.00 0.00 0.00 97 1013.6
20260503182958 51 178 6.1 12.2 0.00 0.00 0.00 97 1013.7
20260503182458 51 162 6.1 12.2 0.00 0.00 0.00 97 1013.7
20260503181957 51 155 6.1 12.2 0.00 0.00 0.00 98 1013.8
20260503181458 51 168 5.2 12.2 0.00 0.00 0.00 98 1013.7
20260503180958 50 136 6.1 11.3 0.00 0.00 0.00 98 1013.7
20260503180458 50 98 6.1 12.2 0.00 0.00 0.00 98 1013.7
20260503175957 50 162 5.2 12.2 0.00 0.00 0.00 98 1013.7
20260503175458 49 175 5.2 8.7 0.00 0.00 0.00 98 1013.8
20260503175002 49 179 4.3 8.7 0.00 0.00 0.00 98 1013.8
20260503174958 49 188 5.2 8.7 0.00 0.00 0.00 98 1013.9
20260503173958 49 171 5.2 8.7 0.00 0.00 0.00 98 1013.9
20260503173458 49 171 6.1 8.7 0.00 0.00 0.00 98 1014.0
20260503172957 49 192 6.1 8.7 0.00 0.00 0.00 98 1013.9
20260503172457 49 189 7.0 9.6 0.00 0.00 0.00 98 1013.9
20260503171957 49 184 7.8 9.6 0.00 0.00 0.00 98 1013.9
20260503171458 49 188 7.8 10.4 0.00 0.00 0.00 98 1013.8
20260503170957 48 197 7.8 10.4 0.00 0.00 0.00 98 1013.7
20260503170457 49 192 7.0 9.6 0.00 0.00 0.00 98 1013.6
20260503150455 49 165 7.8 11.3 0.00 0.00 0.00 98 1012.7
20260503150449 49 171 7.8 9.6 0.00 0.00 0.00 98 1012.7
20260503130448 49 103 4.3 8.7 0.00 0.00 0.00 97 1011.6
20260503130444 49 98 5.2 8.7 0.00 0.00 0.00 97 1011.6
20260503110443 49 107 4.3 7.8 0.00 0.00 0.00 97 1012.0